Wind_Speed
12 11 11 11 11 10 8 7 6 6 6 5 5 5 5 5 4 5 5 5 5 4 4 4 4 4 3 4 3 3 4 4 4 4 4 5 5 4 4 4 3 3 3 2 2 2 2 2 1
12 11 11 12 12 10 9 8 6 7 7 6 5 5 5 5 5 4 4 4 4 4 4 4 4 4 4 3 3 2 3 3 3 4 4 4 4 3 4 3 3 3 2 2 2 2 2 1 2
11 11 12 12 10 9 7 7 8 7 7 6 5 5 5 5 4 4 3 3 3 3 3 4 4 4 3 3 3 2 2 3 3 3 4 3 3 3 3 3 2 1 1 2 2 2 1 1 1
11 11 13 12 9 8 7 7 8 7 6 6 5 5 5 5 4 4 4 4 3 4 4 4 3 4 3 3 3 3 3 3 4 3 3 3 3 3 2 1 1 0 1 2 2 2 1 1 2
11 11 11 9 8 7 7 7 8 7 6 6 6 6 5 5 5 5 5 5 4 4 4 4 4 3 3 3 4 4 4 4 3 2 3 3 2 2 1 1 0 1 1 2 2 1 1 1 2
12 11 9 7 7 7 7 8 7 7 7 7 6 6 5 4 4 4 4 5 4 4 4 4 4 4 3 3 3 3 3 3 2 2 3 2 2 2 1 1 1 1 2 2 2 1 1 1 2
11 8 8 7 7 6 6 6 6 7 7 7 6 6 6 5 4 3 4 4 4 4 3 3 4 3 4 3 3 3 2 2 2 2 3 2 2 1 1 1 1 2 2 3 2 2 2 2 2
11 8 8 6 5 5 5 6 6 7 6 6 6 7 7 6 4 3 3 3 3 3 3 2 2 2 2 2 3 2 1 1 1 2 2 2 2 1 1 1 2 2 3 3 2 2 2 3 2
9 6 6 4 4 4 5 5 5 6 5 5 6 6 7 7 6 4 4 4 3 3 3 3 2 2 2 2 1 1 1 0 1 2 2 2 2 2 2 2 2 2 2 2 3 3 3 3 2
6 5 5 4 3 4 4 5 6 6 4 5 6 6 7 7 6 5 4 3 3 3 3 3 2 2 2 2 1 1 1 1 2 2 3 3 3 3 2 2 2 3 3 3 4 3 4 4 4
5 4 3 3 3 3 4 5 5 6 4 5 5 6 7 6 6 5 5 4 4 3 3 3 3 2 2 2 2 2 2 2 2 3 3 3 3 3 3 3 3 3 3 4 4 4 4 4 5
3 3 2 2 2 3 4 5 6 6 6 6 5 6 6 6 6 5 5 4 4 3 3 4 4 3 3 3 3 2 2 3 3 3 3 3 3 3 3 4 4 4 3 4 4 5 5 5 5
2 3 2 2 3 3 4 5 6 6 6 5 5 6 6 7 5 5 4 4 3 4 4 4 4 4 4 4 3 4 4 3 2 2 2 2 3 3 3 4 4 4 4 4 5 6 6 6 6
3 1 1 2 3 3 4 5 6 6 7 6 6 7 7 7 6 6 5 4 4 4 4 4 4 4 5 5 4 4 4 4 4 3 3 3 3 4 4 4 5 5 5 5 6 6 7 7 6
3 1 2 2 3 3 3 4 6 7 6 6 6 6 7 8 7 7 6 6 5 5 4 5 5 5 6 6 5 5 5 5 4 5 4 4 4 5 5 5 6 6 6 6 6 6 6 7 7
3 2 2 1 2 4 4 5 7 8 6 5 5 6 7 8 8 7 7 7 7 7 5 5 6 6 6 6 6 6 6 5 5 5 5 5 5 6 6 6 6 6 6 6 7 7 7 7 7
1 1 1 2 2 3 4 5 7 7 7 7 6 6 7 7 8 8 8 7 7 7 7 7 7 7 7 7 7 6 6 5 6 6 6 6 6 7 7 7 6 6 7 7 7 8 8 8 7
0 2 4 4 4 4 4 5 5 6 6 7 7 7 7 7 8 8 9 8 8 8 8 8 7 7 7 7 6 6 6 6 6 6 6 7 7 8 7 7 7 7 8 8 8 8 8 8 8
3 4 6 6 5 5 6 6 5 6 7 7 7 7 8 8 8 9 9 10 9 9 9 9 9 8 7 7 6 6 6 7 7 7 7 8 8 8 7 7 7 8 8 8 8 9 9 8 8
7 7 8 7 6 6 7 8 7 6 7 8 8 8 8 8 9 10 10 10 10 10 10 10 10 8 7 7 7 7 7 7 8 8 8 8 8 8 8 8 8 8 8 8 9 10 9 9 9
10 9 7 8 9 8 8 8 8 7 8 7 9 9 9 10 10 10 10 10 10 11 10 10 10 9 8 7 7 8 8 8 9 8 9 8 8 7 7 7 8 8 7 8 10 10 10 10 9
11 11 10 10 10 10 9 10 10 8 9 9 8 10 11 10 11 11 10 10 11 11 11 10 10 10 9 8 8 8 8 8 8 8 8 8 6 6 6 7 7 6 8 9 10 11 11 11 11
12 12 12 12 13 12 11 11 11 11 11 11 11 12 12 12 12 12 11 11 11 12 12 11 11 11 10 9 9 9 8 8 8 9 8 8 7 6 7 8 8 8 10 11 12 12 12 12 12
13 13 13 12 11 12 11 10 12 12 12 11 12 14 14 14 14 14 13 12 12 13 13 12 11 11 11 10 10 9 9 9 9 8 8 7 7 7 8 8 9 10 11 12 12 13 13 13 14
14 13 13 12 11 11 11 12 12 12 13 12 14 15 15 15 15 15 15 13 13 13 13 13 12 11 11 11 11 11 10 10 10 9 8 8 8 8 9 10 10 11 12 12 13 13 14 14 14
14 13 14 12 12 13 13 11 13 14 15 15 15 16 17 16 15 14 15 15 15 14 14 14 13 12 12 12 12 11 11 11 10 10 10 9 9 10 10 11 12 13 13 14 14 14 15 15 16
14 14 13 13 13 15 14 11 11 14 15 15 15 16 18 17 16 15 16 16 15 15 14 14 14 14 13 13 12 12 12 12 11 10 10 10 10 11 11 12 13 13 14 14 15 16 17 17 17
17 15 15 15 15 15 15 13 12 15 16 17 16 16 18 18 16 15 16 16 15 15 15 14 15 15 14 14 14 13 13 13 12 12 12 12 12 12 13 14 14 15 16 16 17 18 18 18 18
18 17 17 17 16 15 16 16 16 17 18 18 17 18 19 18 18 18 17 16 15 15 15 15 16 15 15 15 14 15 15 15 15 14 13 13 13 14 14 15 15 16 17 18 19 19 20 20 20
18 18 18 18 17 16 17 17 16 18 19 21 20 20 20 19 19 19 18 17 17 17 16 16 17 17 16 16 16 17 17 16 15 15 15 15 15 15 16 16 16 17 18 19 20 20 20 20 21
Wind_Direction
88 86 86 81 71 65 58 59 61 54 56 62 69 77 87 96 99 89 90 86 87 84 83 91 104 115 120 116 119 137 160 168 164 159 159 153 148 139 135 126 122 115 106 81 65 58 69 89 71
88 86 85 79 67 60 54 49 50 43 49 63 74 79 86 83 86 81 86 85 82 83 81 90 109 113 112 105 109 140 165 172 166 167 163 158 152 147 142 133 133 116 100 75 51 45 55 79 61
92 86 78 72 66 59 52 48 47 41 51 62 65 76 83 84 79 74 82 91 80 82 89 97 104 110 112 105 102 115 150 168 165 167 169 163 155 148 144 140 137 116 79 39 31 30 30 45 44
95 88 76 68 63 58 55 50 51 42 50 62 59 68 71 74 66 66 80 74 74 85 95 103 96 99 99 94 83 82 105 148 157 157 164 151 145 144 146 146 126 86 26 15 7 26 17 13 6
92 84 76 67 63 61 55 54 46 41 48 55 55 61 64 63 60 64 72 69 76 82 90 92 77 83 81 77 81 84 96 112 132 141 152 154 151 157 173 195 248 325 327 333 336 17 24 355 341
80 72 80 65 62 67 54 46 49 41 43 48 49 54 51 45 52 55 57 64 67 74 80 71 71 79 77 68 78 92 96 101 123 149 157 157 153 164 195 227 293 320 310 308 322 8 9 355 338
78 74 70 65 61 56 52 47 40 41 37 45 42 38 39 34 43 51 53 62 62 70 71 67 67 69 67 68 71 80 96 124 150 158 165 165 162 180 215 238 295 305 308 310 310 330 339 352 343
86 81 65 55 48 45 42 45 32 34 30 43 38 30 38 42 52 60 51 50 56 55 46 50 68 74 60 51 44 42 69 122 157 183 187 201 215 230 258 274 302 305 305 312 324 334 324 344 340
93 77 61 52 40 44 40 36 32 32 23 40 41 35 42 51 59 58 59 54 53 43 27 23 36 44 37 32 28 25 34 115 205 227 242 242 252 255 263 277 288 294 324 339 346 354 354 349 356
97 77 56 57 50 40 42 38 32 33 14 36 38 37 44 52 60 60 64 59 46 39 28 3 20 17 11 13 5 3 351 305 268 265 257 255 273 274 269 273 267 289 317 343 346 342 346 346 351
106 90 56 45 36 38 38 33 27 27 17 29 30 30 38 43 44 44 47 48 39 28 13 356 0 357 341 350 343 336 337 308 282 272 272 267 277 279 280 275 278 294 306 327 334 330 333 330 334
130 97 63 38 21 35 31 18 14 24 18 22 21 21 26 29 26 28 34 35 31 16 1 1 352 346 342 336 326 331 332 329 295 286 279 270 278 293 294 287 281 287 294 304 313 318 325 326 329
105 80 55 36 26 21 22 15 10 14 7 11 15 22 17 18 14 18 19 18 9 357 351 359 353 342 341 333 331 328 332 335 316 308 306 297 298 311 318 325 309 299 300 305 314 320 330 337 334
110 111 102 44 359 9 22 13 4 12 6 8 12 19 15 10 6 7 5 359 358 358 348 338 338 342 336 333 330 329 336 338 328 317 306 299 304 315 316 323 322 317 309 309 316 324 327 327 328
170 196 109 63 18 348 14 13 3 1 1 4 9 14 14 9 7 2 358 355 347 347 343 334 323 326 328 326 324 317 317 321 327 329 312 298 298 307 315 316 317 315 315 320 322 322 326 327 322
198 178 96 70 5 346 3 4 359 351 4 2 3 359 4 4 1 1 358 351 349 345 342 333 327 326 325 326 320 313 314 319 320 320 310 299 300 305 313 318 318 320 319 325 328 328 328 329 324
261 350 2 304 311 326 333 338 346 354 358 354 355 352 349 354 356 358 358 350 347 343 341 333 323 321 320 329 324 319 319 318 318 317 309 301 297 300 306 310 313 318 323 326 325 330 332 332 328
199 310 290 287 293 307 305 315 328 343 351 347 342 344 342 345 354 355 352 349 346 340 339 339 324 319 318 323 324 326 328 327 325 320 316 311 306 307 308 309 311 315 320 322 323 327 328 330 326
228 248 268 283 292 297 294 296 311 326 328 333 333 333 336 338 340 346 346 344 342 339 336 335 331 324 321 324 330 331 335 332 325 318 316 315 310 312 311 312 311 314 317 320 327 325 321 324 322
231 239 256 277 280 278 277 283 284 299 310 319 321 322 326 334 334 335 336 336 337 336 334 334 333 329 325 327 332 330 326 325 325 320 316 315 310 307 311 307 307 307 311 319 323 323 319 315 315
231 239 249 263 266 265 272 280 279 295 298 306 313 319 316 322 326 326 327 330 331 330 330 331 332 331 331 331 332 336 333 327 324 326 324 316 311 305 310 310 303 302 307 314 320 321 318 315 314
236 239 246 256 262 268 270 272 282 288 293 294 299 310 312 317 320 321 322 323 324 326 326 325 326 328 330 328 326 329 329 326 325 324 323 319 317 311 316 318 313 308 314 316 317 317 315 316 315
234 242 244 248 256 259 263 273 275 283 289 299 303 305 309 311 314 313 314 315 316 321 321 321 320 323 327 326 323 323 325 325 324 324 319 319 319 316 319 322 320 317 317 317 317 318 315 315 314
232 240 249 255 258 264 263 268 277 281 287 290 297 299 304 306 308 307 307 307 309 312 313 313 314 316 321 322 320 319 321 320 319 317 315 320 322 316 317 318 317 316 316 315 315 316 316 315 313
237 243 251 259 266 265 263 260 268 274 278 280 287 291 297 301 303 302 302 304 306 307 308 308 307 308 310 311 310 312 315 315 313 311 313 319 320 316 315 317 317 314 315 315 314 315 316 313 311
238 237 239 247 257 262 263 262 271 271 276 280 281 287 291 294 295 297 299 300 301 303 304 304 302 301 303 306 304 304 306 310 309 309 312 315 311 310 314 317 315 313 313 313 313 312 313 311 307
240 238 239 250 256 264 269 266 262 266 275 281 279 283 290 292 291 296 298 299 298 298 299 300 300 298 299 301 300 296 301 304 304 301 305 308 308 306 309 310 312 310 311 310 308 308 308 306 304
237 237 237 240 252 261 267 266 271 276 279 281 279 280 287 292 291 292 294 297 297 297 297 297 299 297 295 295 295 293 297 299 299 297 298 301 304 304 303 305 306 306 306 306 305 305 304 303 302
237 234 239 241 244 256 269 268 273 276 276 278 281 284 285 288 291 292 292 294 293 292 293 295 295 295 294 293 291 291 294 294 295 296 296 300 300 302 303 305 307 308 307 306 304 303 302 302 301
240 242 246 248 249 249 260 262 267 272 273 275 275 281 283 285 288 290 288 291 290 291 291 292 293 292 290 289 288 290 293 294 296 298 297 297 298 298 300 302 304 304 306 307 306 304 303 303 302
Height
5891 5891 5891 5892 5892 5891 5890 5890 5889 5888 5889 5888 5888 5887 5887 5888 5889 5890 5888 5886 5887 5887 5887 5887 5887 5887 5888 5888 5888 5888 5889 5889 5890 5891 5892 5893 5893 5894 5894 5895 5895 5895 5895 5895 5895 5895 5895 5895 5895
5894 5894 5894 5893 5893 5892 5893 5892 5891 5891 5890 5889 5889 5889 5889 5889 5889 5889 5888 5888 5888 5888 5888 5888 5888 5888 5889 5889 5889 5888 5888 5889 5890 5892 5893 5893 5894 5894 5895 5895 5896 5896 5896 5896 5896 5895 5895 5895 5896
5895 5896 5895 5895 5895 5895 5895 5894 5893 5893 5892 5891 5891 5891 5891 5890 5890 5889 5889 5889 5889 5889 5889 5889 5889 5890 5890 5890 5889 5888 5887 5888 5890 5892 5893 5894 5895 5895 5896 5896 5896 5896 5896 5896 5896 5896 5896 5896 5895
5897 5898 5898 5898 5897 5898 5897 5896 5895 5895 5894 5893 5892 5892 5891 5892 5891 5891 5890 5890 5890 5890 5890 5890 5891 5891 5891 5890 5889 5887 5885 5886 5890 5892 5894 5894 5895 5896 5896 5897 5897 5897 5897 5897 5897 5896 5896 5896 5896
5898 5898 5900 5900 5899 5900 5899 5898 5898 5897 5896 5895 5894 5894 5893 5893 5892 5892 5892 5892 5892 5892 5892 5892 5892 5892 5892 5891 5891 5889 5888 5889 5891 5893 5894 5895 5896 5896 5897 5897 5897 5897 5897 5897 5896 5896 5896 5896 5896
5899 5900 5902 5902 5902 5902 5902 5900 5900 5899 5898 5897 5896 5895 5894 5894 5893 5893 5893 5893 5893 5893 5893 5893 5893 5893 5893 5893 5892 5892 5892 5892 5893 5894 5895 5895 5896 5897 5897 5897 5897 5897 5897 5897 5897 5896 5896 5896 5896
5902 5903 5904 5904 5905 5904 5904 5903 5902 5901 5900 5899 5898 5897 5895 5894 5894 5894 5894 5895 5895 5895 5895 5895 5895 5895 5894 5894 5894 5894 5894 5894 5894 5894 5895 5896 5896 5897 5897 5897 5897 5897 5897 5897 5897 5897 5897 5896 5896
5903 5907 5905 5905 5907 5906 5906 5905 5904 5903 5902 5901 5899 5898 5896 5894 5894 5895 5895 5896 5896 5896 5896 5896 5896 5896 5896 5896 5895 5895 5895 5895 5895 5895 5896 5896 5897 5897 5898 5898 5898 5897 5897 5897 5897 5897 5897 5896 5896
5907 5909 5909 5909 5909 5908 5908 5907 5906 5905 5903 5902 5901 5900 5898 5897 5896 5897 5897 5897 5897 5897 5897 5897 5896 5896 5896 5896 5896 5896 5896 5896 5896 5896 5896 5897 5897 5898 5898 5898 5898 5897 5896 5897 5897 5897 5897 5896 5896
5909 5910 5911 5911 5911 5910 5909 5909 5908 5907 5905 5904 5903 5902 5901 5900 5899 5899 5899 5899 5899 5899 5898 5898 5897 5897 5897 5897 5897 5897 5897 5897 5896 5897 5897 5897 5897 5897 5898 5897 5897 5897 5897 5897 5897 5896 5896 5896 5896
5910 5911 5912 5913 5912 5911 5911 5910 5909 5908 5906 5906 5905 5904 5903 5902 5902 5901 5900 5900 5900 5900 5899 5899 5899 5898 5898 5898 5898 5898 5897 5897 5897 5897 5897 5897 5897 5897 5897 5897 5897 5897 5897 5897 5896 5896 5896 5896 5895
5912 5912 5913 5914 5913 5913 5912 5911 5910 5909 5908 5907 5907 5906 5905 5904 5903 5902 5902 5901 5901 5901 5900 5900 5899 5899 5899 5898 5898 5898 5898 5897 5897 5897 5897 5897 5897 5897 5897 5897 5897 5897 5897 5897 5897 5896 5896 5895 5894
5914 5914 5915 5914 5914 5914 5913 5913 5912 5911 5909 5909 5908 5907 5906 5905 5904 5904 5903 5902 5902 5902 5901 5901 5900 5899 5899 5899 5898 5898 5897 5897 5897 5897 5897 5897 5897 5897 5897 5897 5897 5897 5896 5896 5896 5896 5895 5894 5894
5915 5915 5915 5916 5916 5915 5915 5914 5913 5912 5911 5911 5910 5908 5907 5907 5906 5905 5904 5903 5903 5902 5901 5901 5900 5900 5899 5899 5898 5898 5898 5897 5897 5897 5897 5897 5897 5897 5897 5897 5896 5896 5896 5896 5895 5895 5894 5893 5893
5914 5915 5915 5916 5917 5916 5916 5915 5914 5913 5912 5911 5911 5909 5908 5907 5906 5906 5905 5904 5903 5902 5902 5901 5900 5900 5899 5899 5898 5898 5898 5898 5897 5897 5897 5897 5897 5897 5897 5896 5896 5896 5896 5895 5895 5894 5893 5892 5891
5913 5914 5916 5917 5917 5917 5918 5916 5915 5914 5913 5912 5912 5911 5909 5908 5907 5906 5905 5904 5904 5903 5902 5901 5900 5900 5899 5898 5898 5898 5897 5897 5897 5897 5897 5897 5897 5897 5897 5896 5896 5896 5895 5895 5894 5893 5892 5891 5890
5913 5914 5916 5918 5918 5918 5918 5917 5917 5915 5914 5913 5912 5911 5910 5909 5908 5907 5906 5905 5904 5903 5903 5902 5901 5900 5899 5898 5898 5897 5897 5897 5897 5896 5896 5896 5896 5896 5896 5896 5896 5895 5895 5894 5893 5892 5891 5890 5889
5915 5916 5917 5918 5918 5918 5918 5918 5917 5916 5914 5914 5913 5912 5911 5910 5909 5908 5906 5905 5904 5903 5903 5902 5901 5900 5899 5898 5897 5897 5897 5896 5896 5896 5896 5895 5895 5895 5895 5895 5895 5895 5894 5893 5892 5891 5891 5890 5889
5915 5917 5917 5918 5918 5919 5918 5917 5917 5916 5915 5914 5913 5912 5911 5910 5909 5908 5907 5905 5904 5903 5902 5902 5900 5899 5899 5898 5897 5897 5896 5896 5895 5895 5895 5895 5895 5895 5894 5894 5894 5894 5893 5893 5892 5891 5890 5889 5888
5915 5916 5917 5917 5918 5917 5916 5916 5916 5916 5915 5914 5913 5912 5911 5910 5909 5908 5907 5905 5904 5903 5902 5901 5900 5899 5898 5897 5897 5896 5896 5895 5895 5894 5894 5894 5894 5894 5893 5893 5893 5893 5892 5892 5890 5890 5889 5888 5887
5913 5915 5916 5917 5916 5916 5916 5915 5914 5915 5915 5914 5913 5911 5911 5909 5908 5908 5907 5905 5904 5903 5902 5901 5900 5899 5898 5897 5896 5895 5895 5894 5894 5894 5893 5893 5892 5892 5892 5892 5891 5891 5891 5890 5889 5888 5888 5887 5886
5912 5913 5914 5915 5915 5914 5915 5913 5913 5913 5913 5912 5912 5911 5910 5909 5908 5907 5906 5905 5904 5902 5901 5900 5899 5898 5897 5897 5896 5895 5894 5894 5893 5893 5892 5891 5891 5891 5891 5890 5890 5889 5889 5889 5888 5887 5886 5885 5884
5909 5911 5911 5912 5912 5912 5913 5912 5911 5910 5910 5911 5910 5909 5908 5907 5907 5906 5905 5904 5902 5901 5900 5899 5898 5898 5897 5896 5895 5895 5894 5893 5893 5892 5891 5890 5890 5890 5890 5889 5889 5888 5888 5887 5886 5885 5884 5883 5882
5907 5909 5909 5909 5909 5910 5910 5911 5909 5908 5908 5908 5908 5907 5907 5906 5905 5904 5903 5902 5901 5900 5899 5898 5897 5897 5896 5895 5895 5894 5893 5892 5892 5891 5890 5889 5889 5889 5888 5888 5887 5887 5886 5886 5885 5884 5882 5881 5880
5905 5907 5907 5907 5907 5908 5908 5909 5908 5907 5907 5907 5907 5905 5905 5904 5903 5902 5901 5900 5900 5899 5898 5897 5896 5895 5895 5894 5893 5893 5892 5891 5890 5889 5888 5888 5887 5887 5887 5886 5885 5885 5884 5883 5882 5881 5880 5879 5878
5901 5904 5905 5906 5907 5907 5905 5905 5906 5905 5904 5903 5904 5903 5902 5901 5900 5899 5899 5898 5897 5896 5895 5895 5894 5894 5893 5892 5892 5891 5890 5890 5889 5888 5887 5886 5886 5885 5885 5884 5883 5882 5882 5881 5880 5879 5878 5876 5875
5898 5900 5902 5903 5904 5904 5902 5901 5900 5900 5900 5901 5901 5900 5899 5898 5898 5897 5896 5896 5895 5894 5894 5893 5892 5892 5891 5890 5889 5889 5888 5888 5887 5887 5886 5885 5884 5884 5883 5882 5881 5880 5879 5878 5877 5876 5874 5873 5872
5895 5897 5899 5900 5901 5901 5900 5899 5898 5898 5897 5896 5896 5896 5895 5895 5895 5894 5894 5893 5893 5892 5891 5890 5890 5889 5888 5888 5887 5887 5886 5885 5884 5884 5884 5883 5882 5881 5880 5879 5878 5877 5876 5875 5874 5872 5871 5870 5868
5891 5893 5894 5896 5897 5898 5898 5899 5895 5894 5894 5893 5892 5893 5892 5891 5890 5891 5891 5890 5890 5889 5888 5888 5887 5886 5885 5885 5884 5884 5884 5882 5882 5881 5881 5881 5880 5879 5878 5877 5875 5874 5873 5871 5870 5868 5867 5866 5864
5887 5889 5890 5892 5892 5893 5894 5896 5892 5892 5891 5890 5888 5888 5888 5888 5887 5887 5887 5887 5886 5886 5885 5885 5884 5883 5882 5882 5881 5881 5880 5879 5879 5878 5878 5877 5877 5876 5875 5873 5872 5871 5869 5867 5866 5864 5863 5861 5859